This is the latest recevied weather packets stored in our database for station/object WW1TA. If no packets are shown the sender has not sent any weather packets the latest 10 day(s).
| Time | Temp. | Humidity | Pressure | Rain* | Wind** | Luminosity | Snow |
|---|---|---|---|---|---|---|---|
| 1777725023 | 16.11° C | 99% | 1012.3 hPa | 1.27 mm | - | 17 W/m² | - |
| 1777724719 | 16.11° C | 99% | 1012.4 hPa | 0.51 mm | - | 11 W/m² | - |
| 1777724417 | 16.11° C | 99% | 1012.2 hPa | 0.51 mm | - | 28 W/m² | - |
| 1777724114 | 16.11° C | 99% | 1012.1 hPa | 1.27 mm | - | 46 W/m² | - |
| 1777723811 | 16.11° C | 99% | 1012.2 hPa | 1.27 mm | - | 44 W/m² | - |
| 1777723508 | 16.11° C | 99% | 1011.8 hPa | 0.51 mm | - | 26 W/m² | - |
| 1777722598 | 16.11° C | 99% | 1011.8 hPa | 0 mm | - | 34 W/m² | - |
| 1777721992 | 16.11° C | 99% | 1011.6 hPa | 0 mm | - | 15 W/m² | - |
| 1777721689 | 16.11° C | 99% | 1011.7 hPa | 0 mm | - | 12 W/m² | - |
| 1777721388 | 16.11° C | 99% | 1011.7 hPa | 0 mm | - | 10 W/m² | - |
| 1777721085 | 16.11° C | 99% | 1011.7 hPa | 0 mm | - | 2 W/m² | - |
| 1777720783 | 16.11° C | 99% | 1011.8 hPa | 0 mm | - | 2 W/m² | - |
| 1777720480 | 16.11° C | 99% | 1011.8 hPa | 0 mm | - | 10 W/m² | - |
| 1777720177 | 16.11° C | 99% | 1011.8 hPa | 0 mm | - | 11 W/m² | - |
| 1777719875 | 16.67° C | 99% | 1011.7 hPa | 0.51 mm | - | 16 W/m² | - |
| 1777719572 | 16.67° C | 99% | 1011.8 hPa | 2.29 mm | - | 18 W/m² | - |
| 1777719269 | 16.67° C | 99% | 1012.1 hPa | 3.05 mm | - | 10 W/m² | - |
| 1777718967 | 16.67° C | 99% | 1012.2 hPa | 2.29 mm | - | 5 W/m² | - |
| 1777718664 | 16.67° C | 99% | 1012.9 hPa | 0.51 mm | - | 0 W/m² | - |
| 1777718361 | 16.67° C | 99% | 1012.6 hPa | 1.27 mm | - | 0 W/m² | - |
| 1777718059 | 16.67° C | 99% | 1012.6 hPa | 1.78 mm | - | 0 W/m² | - |
| 1777717755 | 16.67° C | 99% | 1012.5 hPa | 1.27 mm | - | 0 W/m² | - |
| 1777717452 | 16.67° C | 99% | 1012.8 hPa | 1.78 mm | - | 0 W/m² | - |
| 1777717150 | 16.67° C | 99% | 1012.1 hPa | 2.29 mm | - | 0 W/m² | - |
| 1777716848 | 16.67° C | 99% | 1012.5 hPa | 2.29 mm | - | 0 W/m² | - |
* Rain latest hour (hover to see other rain measurements)
** Current wind speed in m/s (hover to see current wind gust speed)